Location: Unspecified
(0.0000°N, 0.0000°E)
Time: 07:04:37
(UTC+00:00)

Vanguard 2 - Pass Details

Date: 25 September 2019
Orbit: 554 x 2937 km, 32.9° (Epoch: 14 October)

Event Time Altitude Azimuth Distance (km) Brightness Sun altitude
Rises 23:45:24 0° 252° (WSW) 6,488 12.3 -88.2°
Enters shadow 23:46:45 - 254° (WSW) 6,220 12.2 -88.5°
Reaches altitude 10° 23:49:49 10° 258° (WSW) 5,632 - -89.2°
Maximum altitude 00:06:20 46° 325° (NW) 3,540 - -86.3°
Drops below altitude 10° 00:20:56 10° 34° (NE) 4,978 - -82.7°
Sets 00:24:37 0° 41° (NE) 5,706 - -81.8°
